This demonstration page uses our WeatherBlox Daily Observations layout. Learn more.

Left ArrowRight Arrow

34.02893, -84.19858

Hourly Observations for August 31, 2015

Temp ( °F °C ) Dew Point ( °F °C ) Humidity (%) Winds ( mph kmh ) Pressure ( in mb ) Visibility ( mi km ) Precip ( " mm )
12:00 am 00:00 Cloudy 70 21 64 18 83 83 VRB 3 6 30.09 1019 10 16 0.00 0.00
12:53 am 00:53 Cloudy 68 20 65 18.3 90 90 VRB 3 6 30.09 1019 10 16 0.00 0.00
1:09 am 01:09 Cloudy 68 20 65 18.3 90 90 E 5 7 30.09 1019 10 16 0.00 0.00
1:53 am 01:53 Cloudy 68 20 66 18.9 93 93 VRB 3 6 30.07 1018 10 16 0.00 0.00
2:05 am 02:05 Cloudy 68 20 66 18.9 93 93 E 5 7 30.06 1018 10 16 0.00 0.00
2:53 am 02:53 Cloudy 68 20 65 18.3 90 90 Calm 30.05 1018 10 16 0.00 0.00
3:53 am 03:53 Cloudy 68 20 65 18.3 90 90 VRB 3 6 30.06 1018 10 16 0.00 0.00
4:32 am 04:32 Cloudy 68 20 64 18 88 88 VRB 3 6 30.06 1018 10 16 0.00 0.00
4:53 am 04:53 Cloudy 67 19.4 65 18.3 93 93 VRB 6 9 30.05 1018 10 16 0.00 0.00
5:24 am 05:24 Cloudy 66 19 64 18 94 94 E 7 11 30.06 1018 10 16 0.00 0.00
5:33 am 05:33 Cloudy 67 19.4 65 18.3 93 93 VRB 5 7 30.06 1018 10 16 0.00 0.00
5:53 am 05:53 Cloudy 67 19.4 65 18.3 93 93 VRB 6 9 30.07 1018 10 16 0.00 0.00
6:53 am 06:53 Cloudy 68 20 65 18.3 90 90 Calm 30.08 1019 10 16 0.00 0.00
7:53 am 07:53 Cloudy 68 20 65 18.3 90 90 VRB 3 6 30.09 1019 10 16 0.00 0.00
8:32 am 08:32 Mostly Cloudy 70 21 64 18 83 83 E 3 6 30.09 1019 10 16 0.00 0.00
8:39 am 08:39 Cloudy 70 21.1 65 18.3 84 84 VRB 5 7 30.09 1019 10 16 0.00 0.00
8:53 am 08:53 Cloudy 69 20.6 65 18.3 87 87 E 3 6 30.09 1019 10 16 0.00 0.00
9:53 am 09:53 Cloudy 71 21.7 66 18.9 84 84 E 3 6 30.10 1019 10 16 0.00 0.00
10:00 am 10:00 Cloudy 72 22 66 19 83 83 Calm 30.12 1020 10 16 0.00 0.00
10:53 am 10:53 Cloudy 72 22.2 66 18.9 82 82 Calm 30.12 1020 10 16 0.00 0.00
11:53 am 11:53 Cloudy 73 22.8 67 19.4 81 81 Calm 30.13 1020 10 16 0.00 0.00
12:53 pm 12:53 Cloudy 74 23.3 68 20 82 82 WNW 3 6 30.12 1020 10 16 0.00 0.00
1:53 pm 13:53 Cloudy 76 24.4 68 20 77 77 NW 5 7 30.10 1019 10 16 0.00 0.00
2:53 pm 14:53 Cloudy 78 25.6 69 20.6 74 74 WSW 6 9 30.08 1019 10 16 0.00 0.00
3:53 pm 15:53 Cloudy 81 27.2 68 20 65 65 VRB 3 6 30.06 1018 10 16 0.00 0.00
4:53 pm 16:53 Cloudy 82 27.8 67 19.4 60 60 VRB 3 6 30.04 1017 10 16 0.00 0.00
5:53 pm 17:53 Mostly Cloudy 81 27.2 67 19.4 62 62 VRB 3 6 30.04 1017 10 16 0.00 0.00
6:53 pm 18:53 Mostly Cloudy 81 27.2 68 20 65 65 W 5 7 30.04 1017 10 16 0.00 0.00
7:53 pm 19:53 Sunny 77 25 69 20.6 77 77 SSW 3 6 30.04 1017 10 16 0.00 0.00
8:53 pm 20:53 Clear 73 22.8 70 21.1 90 90 Calm 30.06 1018 10 16 0.00 0.00
9:53 pm 21:53 Clear 72 22.2 70 21.1 94 94 ESE 3 6 30.07 1018 10 16 0.00 0.00
10:53 pm 22:53 Clear 71 21.7 70 21.1 96 96 Calm 30.09 1019 10 16 0.00 0.00
11:53 pm 23:53 Clear 70 21.1 69 20.6 97 97 Calm 30.09 1019 10 16 0.00 0.00

Powered by AerisWeather